SAS41W LEPA-ESSA

Flight info

Callsign SAS41W
Flight time 2h 58m
Altitude 36000
Route MEROS N853 LUMAS DCT SOSUR DCT SECON DCT ODIXU DCT MAXIR DCT LUSOL DCT BODRU DCT OKTET DCT IRMAR DCT KINES DCT VANAS DCT MOBLO DCT UBIMA DCT SOSAL DCT KORED DCT BERSU DCT DITON/N0436F370 DCT LOKTA DCT TEDGO DCT HAREM DCT LOHRE DCT BERXO DCT MAKEL DCT MIKNA N851 PELUP Z226 NILUG
Aircraft A320/M-SDE3FGHIRWY/LB1

Departure

Time 2026-05-05 15:18
Airport Palma de Mallorca Airport (LEPA)

Arrival

Time 2026-05-05 18:17
Airport Stockholm-Arlanda Airport (ESSA)
Time Latitude Longitude Altitude Speed Heading
2026-05-05 14:52 39.55072 2.73588 29 ft 0 kts 163°
2026-05-05 15:08 39.55094 2.73580 30 ft 4 kts 163°
2026-05-05 15:08 39.55112 2.73572 30 ft 4 kts 120°
2026-05-05 15:09 39.55111 2.73547 30 ft 3 kts 59°
2026-05-05 15:09 39.55101 2.73525 30 ft 0 kts 59°
2026-05-05 15:13 39.55105 2.73533 30 ft 2 kts 59°
2026-05-05 15:13 39.55128 2.73582 30 ft 11 kts 58°
2026-05-05 15:13 39.55171 2.73674 30 ft 13 kts 58°
2026-05-05 15:14 39.55167 2.73772 30 ft 11 kts 92°
2026-05-05 15:14 39.55222 2.73816 30 ft 12 kts 336°
2026-05-05 15:14 39.55313 2.73746 30 ft 19 kts 328°
2026-05-05 15:14 39.55429 2.73654 30 ft 18 kts 329°
2026-05-05 15:15 39.55537 2.73568 30 ft 16 kts 328°
2026-05-05 15:15 39.55628 2.73503 30 ft 14 kts 347°
2026-05-05 15:15 39.55697 2.73587 30 ft 15 kts 58°
2026-05-05 15:15 39.55755 2.73709 30 ft 17 kts 58°
2026-05-05 15:16 39.55819 2.73844 30 ft 18 kts 58°
2026-05-05 15:16 39.55888 2.73991 30 ft 20 kts 58°
2026-05-05 15:16 39.55963 2.74151 30 ft 22 kts 58°
2026-05-05 15:16 39.56044 2.74323 30 ft 23 kts 58°
2026-05-05 15:17 39.56132 2.74454 30 ft 17 kts 12°
2026-05-05 15:17 39.56232 2.74398 30 ft 15 kts 323°
2026-05-05 15:17 39.56246 2.74298 30 ft 9 kts 242°
2026-05-05 15:17 39.56240 2.74285 30 ft 4 kts 240°
2026-05-05 15:18 39.56125 2.74044 30 ft 66 kts 238°
2026-05-05 15:18 39.55780 2.73315 30 ft 120 kts 238°
2026-05-05 15:18 39.55266 2.72236 97 ft 155 kts 238°
2026-05-05 15:18 39.54713 2.71052 653 ft 154 kts 237°
2026-05-05 15:19 39.54156 2.69870 1259 ft 160 kts 239°
2026-05-05 15:19 39.53520 2.68526 1486 ft 184 kts 238°
2026-05-05 15:19 39.52823 2.67053 1808 ft 202 kts 238°
2026-05-05 15:19 39.52074 2.65474 2473 ft 209 kts 239°
2026-05-05 15:20 39.51308 2.63865 3204 ft 212 kts 240°
2026-05-05 15:20 39.50522 2.62213 3981 ft 214 kts 239°
2026-05-05 15:20 39.49592 2.60702 4564 ft 230 kts 220°
2026-05-05 15:20 39.48060 2.59807 4917 ft 259 kts 190°
2026-05-05 15:21 39.46241 2.60165 5612 ft 276 kts 156°
2026-05-05 15:21 39.44807 2.61852 6413 ft 288 kts 122°
2026-05-05 15:21 39.44191 2.64343 7209 ft 296 kts 100°
2026-05-05 15:21 39.44020 2.67015 8057 ft 300 kts 93°
2026-05-05 15:22 39.44020 2.69732 8882 ft 304 kts 91°
2026-05-05 15:22 39.44062 2.72482 9657 ft 308 kts 91°
2026-05-05 15:22 39.44089 2.75277 10265 ft 317 kts 92°
2026-05-05 15:22 39.44134 2.78233 10448 ft 342 kts 85°
2026-05-05 15:23 39.44878 2.81232 10747 ft 360 kts 60°
2026-05-05 15:23 39.46439 2.83800 11295 ft 367 kts 47°
2026-05-05 15:23 39.48157 2.86271 11930 ft 371 kts 47°
2026-05-05 15:23 39.49902 2.88773 12562 ft 376 kts 47°
2026-05-05 15:24 39.51664 2.91305 13182 ft 382 kts 47°
2026-05-05 15:24 39.53453 2.93883 13791 ft 387 kts 47°
2026-05-05 15:24 39.55261 2.96497 14343 ft 391 kts 47°
2026-05-05 15:24 39.57088 2.99139 14897 ft 395 kts 47°
2026-05-05 15:25 39.58934 3.01809 15447 ft 399 kts 46°
2026-05-05 15:25 39.60796 3.04502 15996 ft 403 kts 46°
2026-05-05 15:25 39.62675 3.07224 16541 ft 406 kts 47°
2026-05-05 15:25 39.64566 3.09972 17114 ft 410 kts 46°
2026-05-05 15:26 39.66475 3.12748 17676 ft 414 kts 46°
2026-05-05 15:26 39.68403 3.15552 18226 ft 418 kts 46°
2026-05-05 15:26 39.70324 3.18343 18702 ft 422 kts 46°
2026-05-05 15:26 39.72288 3.21200 19177 ft 426 kts 46°
2026-05-05 15:27 39.74270 3.24086 19659 ft 431 kts 46°
2026-05-05 15:27 39.76272 3.27010 20171 ft 435 kts 46°
2026-05-05 15:27 39.78296 3.29970 20630 ft 440 kts 46°
2026-05-05 15:27 39.80340 3.32962 21088 ft 444 kts 46°
2026-05-05 15:28 39.82401 3.35981 21553 ft 449 kts 46°
2026-05-05 15:28 39.84482 3.39031 22007 ft 453 kts 46°
2026-05-05 15:28 39.86583 3.42108 22463 ft 457 kts 46°
2026-05-05 15:28 39.88703 3.45216 22906 ft 461 kts 46°
2026-05-05 15:29 39.90839 3.48359 23350 ft 465 kts 46°
2026-05-05 15:29 39.92994 3.51535 23741 ft 469 kts 47°
2026-05-05 15:29 39.95169 3.54741 24113 ft 472 kts 47°
2026-05-05 15:29 39.97350 3.57958 24488 ft 475 kts 47°
2026-05-05 15:30 39.99551 3.61204 24865 ft 479 kts 47°
2026-05-05 15:30 40.01832 3.64378 25221 ft 480 kts 39°
2026-05-05 15:30 40.04559 3.66862 25556 ft 475 kts 22°
2026-05-05 15:30 40.07552 3.68662 25904 ft 476 kts 19°
2026-05-05 15:31 40.10589 3.70414 26248 ft 478 kts 19°
2026-05-05 15:31 40.13651 3.72161 26586 ft 481 kts 18°
2026-05-05 15:31 40.16726 3.73912 26915 ft 484 kts 19°
2026-05-05 15:31 40.19822 3.75683 27280 ft 487 kts 19°
2026-05-05 15:32 40.22934 3.77475 27565 ft 491 kts 19°
2026-05-05 15:32 40.26067 3.79289 27871 ft 494 kts 19°
2026-05-05 15:32 40.29223 3.81121 28179 ft 497 kts 19°
2026-05-05 15:32 40.32345 3.82936 28533 ft 498 kts 19°
2026-05-05 15:33 40.35523 3.84786 28865 ft 501 kts 19°
2026-05-05 15:33 40.38719 3.86643 29183 ft 503 kts 19°
2026-05-05 15:33 40.41927 3.88505 29529 ft 506 kts 19°
2026-05-05 15:33 40.45163 3.90387 29767 ft 511 kts 19°
2026-05-05 15:34 40.48427 3.92291 30033 ft 514 kts 19°
2026-05-05 15:34 40.51694 3.94202 30385 ft 514 kts 19°
2026-05-05 15:34 40.54957 3.96114 30773 ft 513 kts 19°
2026-05-05 15:34 40.58224 3.98027 31157 ft 513 kts 19°
2026-05-05 15:35 40.61480 3.99933 31542 ft 512 kts 19°
2026-05-05 15:35 40.64734 4.01841 31931 ft 512 kts 19°
2026-05-05 15:35 40.67981 4.03746 32317 ft 511 kts 19°
2026-05-05 15:35 40.71229 4.05655 32707 ft 511 kts 19°
2026-05-05 15:36 40.74472 4.07563 33096 ft 510 kts 19°
2026-05-05 15:36 40.77707 4.09468 33488 ft 509 kts 19°
2026-05-05 15:36 40.80942 4.11372 33879 ft 509 kts 19°
2026-05-05 15:36 40.84176 4.13277 34240 ft 508 kts 19°
2026-05-05 15:37 40.86312 4.14538 34457 ft 508 kts 19°
2026-05-05 15:37 40.89533 4.16440 34783 ft 507 kts 19°
2026-05-05 15:37 40.92748 4.18339 35119 ft 505 kts 19°
2026-05-05 15:37 40.95951 4.20235 35423 ft 504 kts 19°
2026-05-05 15:38 40.99144 4.22131 35751 ft 502 kts 19°
2026-05-05 15:38 41.02336 4.24024 35884 ft 503 kts 19°
2026-05-05 15:38 41.05538 4.25923 35948 ft 505 kts 19°
2026-05-05 15:39 41.11964 4.29742 35907 ft 507 kts 19°
2026-05-05 15:39 41.18404 4.33585 35907 ft 507 kts 19°
2026-05-05 15:40 41.24844 4.37428 35910 ft 507 kts 19°
2026-05-05 15:40 41.31280 4.41282 35906 ft 507 kts 19°
2026-05-05 15:41 41.37717 4.45151 35905 ft 507 kts 19°
2026-05-05 15:41 41.44116 4.48996 35912 ft 508 kts 19°
2026-05-05 15:42 41.50555 4.52877 35947 ft 508 kts 19°
2026-05-05 15:42 41.56999 4.56770 35934 ft 508 kts 19°
2026-05-05 15:43 41.63446 4.60668 35909 ft 508 kts 19°
2026-05-05 15:43 41.69900 4.64579 35946 ft 509 kts 20°
2026-05-05 15:44 41.76481 4.67917 35937 ft 502 kts 10°
2026-05-05 15:44 41.83160 4.70728 35927 ft 508 kts 20°
2026-05-05 15:45 41.89309 4.75548 35957 ft 513 kts 28°
2026-05-05 15:45 41.95334 4.80582 35937 ft 514 kts 28°
2026-05-05 15:46 42.01384 4.85668 35931 ft 514 kts 28°
2026-05-05 15:46 42.07457 4.90751 35932 ft 514 kts 28°
2026-05-05 15:47 42.13537 4.95824 35891 ft 514 kts 28°
2026-05-05 15:47 42.19612 5.00913 35900 ft 514 kts 28°
2026-05-05 15:48 42.25689 5.06034 35916 ft 515 kts 28°
2026-05-05 15:48 42.31772 5.11161 35946 ft 515 kts 28°
2026-05-05 15:49 42.37850 5.16297 35942 ft 515 kts 28°
2026-05-05 15:49 42.43930 5.21449 35942 ft 515 kts 28°
2026-05-05 15:50 42.50008 5.26607 35974 ft 515 kts 29°
2026-05-05 15:50 42.56071 5.31769 35935 ft 514 kts 29°
2026-05-05 15:51 42.62138 5.36938 35910 ft 515 kts 28°
2026-05-05 15:51 42.68196 5.42119 35926 ft 515 kts 29°
2026-05-05 15:52 42.74256 5.47315 35936 ft 515 kts 29°
2026-05-05 15:52 42.80312 5.52529 35941 ft 515 kts 29°
2026-05-05 15:53 42.86375 5.57743 35945 ft 515 kts 29°
2026-05-05 15:53 42.92430 5.62963 35963 ft 515 kts 29°
2026-05-05 15:54 42.98475 5.68196 35955 ft 514 kts 29°
2026-05-05 15:54 43.04512 5.73437 35927 ft 514 kts 29°
2026-05-05 15:55 43.10545 5.78685 35970 ft 514 kts 29°
2026-05-05 15:55 43.16534 5.83895 35965 ft 513 kts 29°
2026-05-05 15:56 43.22557 5.89143 35960 ft 513 kts 29°
2026-05-05 15:56 43.28577 5.94399 35981 ft 513 kts 29°
2026-05-05 15:57 43.34608 5.99621 35960 ft 511 kts 24°
2026-05-05 15:57 43.41106 6.03336 35942 ft 505 kts 16°
2026-05-05 15:58 43.47657 6.06825 35956 ft 505 kts 16°
2026-05-05 15:58 43.54217 6.10317 35929 ft 505 kts 16°
2026-05-05 15:59 43.60730 6.13793 35935 ft 504 kts 16°
2026-05-05 15:59 43.67268 6.17286 35956 ft 504 kts 16°
2026-05-05 16:00 43.73833 6.20812 35909 ft 510 kts 16°
2026-05-05 16:00 43.80487 6.24392 35930 ft 515 kts 16°
2026-05-05 16:01 43.87162 6.27991 35939 ft 514 kts 16°
2026-05-05 16:01 43.93807 6.31596 35925 ft 513 kts 16°
2026-05-05 16:02 44.00453 6.35200 35924 ft 512 kts 17°
2026-05-05 16:02 44.07095 6.38811 35945 ft 513 kts 17°
2026-05-05 16:03 44.13750 6.42446 35952 ft 514 kts 17°
2026-05-05 16:03 44.20403 6.46077 35946 ft 513 kts 17°
2026-05-05 16:04 44.27053 6.49724 35933 ft 513 kts 17°
2026-05-05 16:04 44.33686 6.53364 35948 ft 512 kts 17°
2026-05-05 16:05 44.40286 6.56984 35949 ft 512 kts 17°
2026-05-05 16:05 44.46918 6.60641 35969 ft 512 kts 17°
2026-05-05 16:06 44.53541 6.64310 35966 ft 512 kts 17°
2026-05-05 16:06 44.60153 6.67991 35955 ft 511 kts 17°
2026-05-05 16:07 44.66768 6.71669 35965 ft 511 kts 17°
2026-05-05 16:07 44.73344 6.75328 35963 ft 511 kts 17°
2026-05-05 16:08 44.80081 6.78266 35973 ft 501 kts
2026-05-05 16:08 44.86906 6.78594 35966 ft 489 kts 351°
2026-05-05 16:09 44.93708 6.78130 35963 ft 489 kts 351°
2026-05-05 16:09 45.00507 6.77693 35973 ft 489 kts 351°
2026-05-05 16:10 45.07311 6.77250 35972 ft 490 kts 351°
2026-05-05 16:10 45.14115 6.76806 35951 ft 489 kts 351°
2026-05-05 16:11 45.20908 6.76352 35955 ft 489 kts 351°
2026-05-05 16:12 45.34537 6.75436 35944 ft 490 kts 351°
2026-05-05 16:13 45.51595 6.74290 35947 ft 491 kts 351°
2026-05-05 16:13 45.58443 6.74117 35947 ft 498 kts
2026-05-05 16:14 45.65132 6.77019 35949 ft 505 kts 17°
2026-05-05 16:14 45.71731 6.80495 35944 ft 506 kts 17°
2026-05-05 16:15 45.84883 6.87457 35949 ft 505 kts 17°
2026-05-05 16:16 45.98050 6.94433 35945 ft 504 kts 17°
2026-05-05 16:17 46.07908 6.99668 35939 ft 503 kts 17°
2026-05-05 16:18 46.17748 7.04917 35953 ft 502 kts 18°
2026-05-05 16:19 46.27569 7.10184 35942 ft 501 kts 18°
2026-05-05 16:19 46.37360 7.15460 35943 ft 500 kts 18°
2026-05-05 16:20 46.50378 7.22487 35920 ft 498 kts 18°
2026-05-05 16:22 46.66567 7.31285 35892 ft 498 kts 18°
2026-05-05 16:23 46.78495 7.37813 35917 ft 498 kts 18°
2026-05-05 16:23 46.87237 7.45766 35917 ft 500 kts 46°
2026-05-05 16:24 46.91679 7.53579 35898 ft 500 kts 52°
2026-05-05 16:25 46.98170 7.65510 35904 ft 498 kts 52°
2026-05-05 16:25 47.04632 7.77431 35896 ft 497 kts 49°
2026-05-05 16:26 47.10067 7.83580 35900 ft 495 kts 31°
2026-05-05 16:26 47.15919 7.88911 35902 ft 494 kts 31°
2026-05-05 16:27 47.21780 7.94201 35897 ft 494 kts 31°
2026-05-05 16:27 47.27623 7.99511 35894 ft 494 kts 31°
2026-05-05 16:28 47.33456 8.04858 35891 ft 493 kts 32°
2026-05-05 16:28 47.39271 8.10195 35882 ft 492 kts 31°
2026-05-05 16:29 47.45081 8.15533 35881 ft 491 kts 32°
2026-05-05 16:29 47.50883 8.20881 35883 ft 491 kts 32°
2026-05-05 16:30 47.56683 8.26226 35888 ft 491 kts 32°
2026-05-05 16:30 47.62469 8.31578 35884 ft 490 kts 32°
2026-05-05 16:31 47.68246 8.36950 35881 ft 490 kts 32°
2026-05-05 16:31 47.74019 8.42333 35889 ft 489 kts 32°
2026-05-05 16:32 47.79734 8.47662 35864 ft 488 kts 32°
2026-05-05 16:32 47.85485 8.53044 35868 ft 488 kts 32°
2026-05-05 16:33 47.91228 8.58434 35866 ft 488 kts 33°
2026-05-05 16:33 47.96964 8.63834 35877 ft 487 kts 33°
2026-05-05 16:34 48.02692 8.69250 35869 ft 486 kts 33°
2026-05-05 16:34 48.08409 8.74661 35872 ft 486 kts 33°
2026-05-05 16:35 48.14125 8.80074 35876 ft 485 kts 33°
2026-05-05 16:35 48.19819 8.85485 35868 ft 484 kts 33°
2026-05-05 16:36 48.25503 8.90907 35866 ft 484 kts 33°
2026-05-05 16:36 48.31176 8.96342 35867 ft 483 kts 33°
2026-05-05 16:37 48.36812 9.01748 35861 ft 483 kts 33°
2026-05-05 16:37 48.42487 9.07204 35879 ft 481 kts 33°
2026-05-05 16:38 48.45271 9.09883 36095 ft 480 kts 33°
2026-05-05 16:38 48.48087 9.12597 36342 ft 481 kts 33°
2026-05-05 16:38 48.50902 9.15314 36610 ft 480 kts 33°
2026-05-05 16:38 48.53718 9.18039 36801 ft 482 kts 33°
2026-05-05 16:39 48.59430 9.23366 36830 ft 483 kts 26°
2026-05-05 16:39 48.65801 9.26481 36835 ft 483 kts
2026-05-05 16:40 48.72481 9.27546 36837 ft 483 kts
2026-05-05 16:40 48.79170 9.28565 36843 ft 483 kts
2026-05-05 16:41 48.85856 9.29600 36839 ft 483 kts
2026-05-05 16:41 48.92553 9.30631 36845 ft 484 kts
2026-05-05 16:42 48.99254 9.31655 36855 ft 484 kts
2026-05-05 16:42 49.05959 9.32691 36856 ft 483 kts
2026-05-05 16:43 49.12643 9.33728 36853 ft 483 kts
2026-05-05 16:43 49.19333 9.34765 36854 ft 483 kts
2026-05-05 16:44 49.26021 9.35814 36856 ft 483 kts
2026-05-05 16:44 49.32655 9.36852 36868 ft 483 kts
2026-05-05 16:45 49.39346 9.37903 36864 ft 482 kts
2026-05-05 16:45 49.46020 9.38952 36856 ft 482 kts
2026-05-05 16:46 49.52686 9.39996 36859 ft 482 kts
2026-05-05 16:46 49.59355 9.41045 36849 ft 482 kts
2026-05-05 16:47 49.66021 9.42113 36848 ft 481 kts
2026-05-05 16:47 49.72698 9.43178 36850 ft 482 kts
2026-05-05 16:48 49.79361 9.44248 36850 ft 482 kts
2026-05-05 16:48 49.86028 9.45316 36848 ft 482 kts
2026-05-05 16:49 49.92696 9.46390 36853 ft 482 kts
2026-05-05 16:49 49.99369 9.47461 36847 ft 482 kts
2026-05-05 16:50 50.06043 9.48547 36853 ft 482 kts
2026-05-05 16:50 50.12620 9.50626 36840 ft 482 kts 12°
2026-05-05 16:51 50.19188 9.52826 36851 ft 483 kts 12°
2026-05-05 16:51 50.25711 9.55003 36850 ft 483 kts 12°
2026-05-05 16:52 50.32279 9.57216 36836 ft 483 kts 12°
2026-05-05 16:52 50.38851 9.59438 36836 ft 483 kts 12°
2026-05-05 16:53 50.45428 9.61652 36829 ft 483 kts 12°
2026-05-05 16:53 50.52003 9.63882 36839 ft 484 kts 12°
2026-05-05 16:54 50.58589 9.66121 36824 ft 484 kts 12°
2026-05-05 16:54 50.65178 9.68367 36827 ft 484 kts 12°
2026-05-05 16:55 50.71774 9.70628 36830 ft 485 kts 12°
2026-05-05 16:55 50.78373 9.72900 36824 ft 485 kts 12°
2026-05-05 16:56 50.84930 9.75159 36827 ft 485 kts 12°
2026-05-05 16:56 50.91526 9.77427 36830 ft 485 kts 12°
2026-05-05 16:57 50.98118 9.79707 36846 ft 485 kts 11°
2026-05-05 16:57 51.04721 9.82004 36827 ft 486 kts 12°
2026-05-05 16:58 51.11325 9.84320 36833 ft 486 kts 12°
2026-05-05 16:58 51.17934 9.86637 36854 ft 486 kts 11°
2026-05-05 16:59 51.24489 9.89295 36834 ft 487 kts 18°
2026-05-05 16:59 51.30903 9.92817 36841 ft 487 kts 18°
2026-05-05 17:00 51.37316 9.96382 36848 ft 488 kts 18°
2026-05-05 17:00 51.43732 9.99949 36852 ft 488 kts 18°
2026-05-05 17:01 51.50144 10.03510 36859 ft 488 kts 18°
2026-05-05 17:01 51.56551 10.07086 36855 ft 488 kts 18°
2026-05-05 17:02 51.62962 10.10668 36868 ft 488 kts 18°
2026-05-05 17:02 51.69377 10.14261 36867 ft 488 kts 18°
2026-05-05 17:03 51.75744 10.17847 36872 ft 488 kts 18°
2026-05-05 17:03 51.82190 10.21506 36872 ft 488 kts 18°
2026-05-05 17:04 51.88601 10.25145 36884 ft 488 kts 17°
2026-05-05 17:04 51.94973 10.28754 36882 ft 488 kts 17°
2026-05-05 17:05 52.01387 10.32396 36883 ft 489 kts 17°
2026-05-05 17:05 52.07805 10.36048 36881 ft 489 kts 17°
2026-05-05 17:06 52.14216 10.39734 36887 ft 489 kts 17°
2026-05-05 17:06 52.20621 10.43430 36886 ft 488 kts 17°
2026-05-05 17:07 52.25986 10.46528 36886 ft 488 kts 17°
2026-05-05 17:07 52.32348 10.50212 36896 ft 488 kts 17°
2026-05-05 17:08 52.38748 10.53921 36891 ft 488 kts 16°
2026-05-05 17:08 52.45141 10.57629 36890 ft 487 kts 17°
2026-05-05 17:09 52.51569 10.61375 36890 ft 487 kts 17°
2026-05-05 17:09 52.57960 10.65113 36908 ft 487 kts 16°
2026-05-05 17:10 52.64295 10.68833 36905 ft 486 kts 16°
2026-05-05 17:10 52.70704 10.72620 36903 ft 486 kts 16°
2026-05-05 17:11 52.77033 10.76367 36921 ft 486 kts 16°
2026-05-05 17:11 52.83391 10.80148 36912 ft 485 kts 16°
2026-05-05 17:12 52.89751 10.83932 36911 ft 485 kts 16°
2026-05-05 17:12 52.96112 10.87707 36913 ft 485 kts 16°
2026-05-05 17:13 53.02466 10.91512 36910 ft 485 kts 16°
2026-05-05 17:13 53.08817 10.95327 36915 ft 485 kts 16°
2026-05-05 17:14 53.15124 10.99117 36913 ft 485 kts 16°
2026-05-05 17:14 53.21471 11.02931 36913 ft 485 kts 16°
2026-05-05 17:15 53.27810 11.06774 36930 ft 484 kts 16°
2026-05-05 17:15 53.34143 11.10637 36927 ft 484 kts 16°
2026-05-05 17:16 53.40472 11.14495 36923 ft 484 kts 16°
2026-05-05 17:16 53.46799 11.18368 36927 ft 484 kts 16°
2026-05-05 17:17 53.53125 11.22256 36942 ft 484 kts 16°
2026-05-05 17:17 53.59453 11.26142 36931 ft 484 kts 16°
2026-05-05 17:18 53.65785 11.30047 36935 ft 484 kts 16°
2026-05-05 17:18 53.72106 11.33976 36952 ft 484 kts 16°
2026-05-05 17:19 53.78434 11.37923 36939 ft 485 kts 16°
2026-05-05 17:19 53.84771 11.41865 36940 ft 485 kts 16°
2026-05-05 17:20 53.91066 11.45790 36934 ft 486 kts 16°
2026-05-05 17:20 53.97413 11.49771 36962 ft 486 kts 16°
2026-05-05 17:21 54.03750 11.53764 36952 ft 486 kts 16°
2026-05-05 17:22 54.13255 11.59775 36945 ft 486 kts 16°
2026-05-05 17:22 54.19589 11.63803 36965 ft 486 kts 16°
2026-05-05 17:23 54.25926 11.67836 36952 ft 485 kts 16°
2026-05-05 17:23 54.32248 11.71872 36947 ft 485 kts 16°
2026-05-05 17:24 54.38561 11.75919 36945 ft 484 kts 16°
2026-05-05 17:24 54.44800 11.80109 36968 ft 487 kts 22°
2026-05-05 17:25 54.50647 11.86122 36963 ft 490 kts 28°
2026-05-05 17:25 54.56427 11.92350 36943 ft 490 kts 28°
2026-05-05 17:26 54.62196 11.98586 36944 ft 489 kts 28°
2026-05-05 17:26 54.67970 12.04838 36973 ft 489 kts 28°
2026-05-05 17:27 54.73751 12.11094 36959 ft 489 kts 28°
2026-05-05 17:27 54.79514 12.17362 36950 ft 489 kts 28°
2026-05-05 17:28 54.85226 12.23605 36954 ft 488 kts 28°
2026-05-05 17:28 54.90978 12.29903 36978 ft 488 kts 29°
2026-05-05 17:29 54.96716 12.36215 36965 ft 488 kts 29°
2026-05-05 17:29 55.02447 12.42551 36955 ft 488 kts 29°
2026-05-05 17:30 55.08175 12.48897 36954 ft 487 kts 29°
2026-05-05 17:30 55.13899 12.55256 36969 ft 487 kts 29°
2026-05-05 17:31 55.19609 12.61640 36963 ft 487 kts 29°
2026-05-05 17:31 55.25315 12.68041 36954 ft 487 kts 29°
2026-05-05 17:32 55.31024 12.74444 36946 ft 486 kts 29°
2026-05-05 17:32 55.36720 12.80862 36944 ft 486 kts 30°
2026-05-05 17:33 55.42414 12.87311 36938 ft 486 kts 29°
2026-05-05 17:33 55.48108 12.93768 36939 ft 486 kts 29°
2026-05-05 17:34 55.53759 13.00206 36946 ft 486 kts 29°
2026-05-05 17:34 55.59443 13.06702 36946 ft 486 kts 29°
2026-05-05 17:35 55.65121 13.13219 36951 ft 486 kts 30°
2026-05-05 17:35 55.70805 13.19756 36947 ft 486 kts 30°
2026-05-05 17:36 55.76472 13.26305 36945 ft 486 kts 30°
2026-05-05 17:36 55.82147 13.32893 36948 ft 486 kts 30°
2026-05-05 17:37 55.87819 13.39499 36973 ft 487 kts 30°
2026-05-05 17:37 55.93487 13.46116 36958 ft 487 kts 30°
2026-05-05 17:38 55.99156 13.52746 36952 ft 487 kts 30°
2026-05-05 17:38 56.04789 13.59363 36945 ft 487 kts 30°
2026-05-05 17:39 56.10444 13.66054 36963 ft 488 kts 30°
2026-05-05 17:39 56.16110 13.72765 36948 ft 488 kts 30°
2026-05-05 17:40 56.21782 13.79498 36940 ft 489 kts 30°
2026-05-05 17:40 56.27447 13.86258 36939 ft 489 kts 30°
2026-05-05 17:41 56.33113 13.93047 36950 ft 489 kts 30°
2026-05-05 17:41 56.38779 13.99849 36936 ft 489 kts 30°
2026-05-05 17:42 56.44447 14.06678 36936 ft 490 kts 30°
2026-05-05 17:42 56.50114 14.13534 36935 ft 490 kts 30°
2026-05-05 17:43 56.55786 14.20421 36936 ft 490 kts 30°
2026-05-05 17:43 56.61451 14.27329 36949 ft 491 kts 30°
2026-05-05 17:44 56.67122 14.34270 36934 ft 491 kts 30°
2026-05-05 17:44 56.72785 14.41232 36924 ft 492 kts 30°
2026-05-05 17:45 56.78455 14.48219 36921 ft 492 kts 30°
2026-05-05 17:45 56.84123 14.55225 36899 ft 492 kts 30°
2026-05-05 17:46 56.89781 14.62269 36896 ft 492 kts 30°
2026-05-05 17:46 56.95445 14.69339 36916 ft 493 kts 30°
2026-05-05 17:47 57.01068 14.76369 36918 ft 493 kts 30°
2026-05-05 17:47 57.06730 14.83478 36934 ft 493 kts 30°
2026-05-05 17:48 57.12396 14.90609 36910 ft 493 kts 30°
2026-05-05 17:48 57.18057 14.97769 36909 ft 494 kts 30°
2026-05-05 17:49 57.23715 15.04961 36907 ft 494 kts 30°
2026-05-05 17:49 57.29372 15.12167 36949 ft 494 kts 30°
2026-05-05 17:50 57.34910 15.19759 36925 ft 500 kts 39°
2026-05-05 17:50 57.40006 15.28549 36914 ft 501 kts 39°
2026-05-05 17:51 57.45098 15.37387 36907 ft 501 kts 39°
2026-05-05 17:51 57.49334 15.44754 36912 ft 502 kts 39°
2026-05-05 17:52 57.54421 15.53640 36937 ft 502 kts 39°
2026-05-05 17:52 57.59508 15.62580 36929 ft 503 kts 39°
2026-05-05 17:53 57.64592 15.71546 36926 ft 503 kts 40°
2026-05-05 17:53 57.69679 15.80562 36925 ft 504 kts 40°
2026-05-05 17:54 57.74754 15.89588 36925 ft 504 kts 40°
2026-05-05 17:54 57.79825 15.98630 36911 ft 503 kts 40°
2026-05-05 17:55 57.84864 16.07661 36900 ft 495 kts 40°
2026-05-05 17:55 57.87347 16.12125 36678 ft 493 kts 40°
2026-05-05 17:55 57.89816 16.16578 36417 ft 491 kts 40°
2026-05-05 17:55 57.92282 16.21026 36145 ft 491 kts 40°
2026-05-05 17:56 57.94754 16.25496 35355 ft 496 kts 40°
2026-05-05 17:56 57.97245 16.30004 34787 ft 495 kts 40°
2026-05-05 17:56 57.99723 16.34502 34270 ft 494 kts 39°
2026-05-05 17:56 58.02203 16.39010 33660 ft 494 kts 39°
2026-05-05 17:57 58.04666 16.43493 33102 ft 491 kts 39°
2026-05-05 17:57 58.07112 16.47961 32544 ft 488 kts 39°
2026-05-05 17:57 58.09518 16.52367 31983 ft 486 kts 39°
2026-05-05 17:57 58.12100 16.56280 31764 ft 466 kts 26°
2026-05-05 17:58 58.14877 16.59458 30778 ft 472 kts 24°
2026-05-05 17:58 58.17743 16.62637 29796 ft 480 kts 24°
2026-05-05 17:58 58.20602 16.65780 29442 ft 470 kts 24°
2026-05-05 17:58 58.23419 16.68869 28832 ft 468 kts 23°
2026-05-05 17:59 58.26228 16.71945 28280 ft 463 kts 23°
2026-05-05 17:59 58.29004 16.74992 27773 ft 459 kts 23°
2026-05-05 17:59 58.31750 16.78024 27305 ft 454 kts 23°
2026-05-05 17:59 58.34466 16.81035 26834 ft 450 kts 23°
2026-05-05 18:00 58.37158 16.84030 26368 ft 446 kts 23°
2026-05-05 18:00 58.39824 16.87000 25917 ft 443 kts 23°
2026-05-05 18:00 58.42477 16.89960 25440 ft 441 kts 23°
2026-05-05 18:00 58.45121 16.92918 24961 ft 439 kts 23°
2026-05-05 18:01 58.47752 16.95865 24480 ft 439 kts 23°
2026-05-05 18:01 58.50389 16.98826 23987 ft 439 kts 22°
2026-05-05 18:01 58.53013 17.01772 23214 ft 446 kts 22°
2026-05-05 18:01 58.55691 17.04782 22576 ft 445 kts 22°
2026-05-05 18:02 58.58350 17.07782 22046 ft 442 kts 22°
2026-05-05 18:02 58.61018 17.10796 21026 ft 450 kts 23°
2026-05-05 18:02 58.63731 17.13860 20232 ft 452 kts 23°
2026-05-05 18:02 58.66432 17.16927 19607 ft 450 kts 23°
2026-05-05 18:03 58.69113 17.19984 19038 ft 446 kts 23°
2026-05-05 18:03 58.71766 17.23016 18503 ft 442 kts 23°
2026-05-05 18:03 58.74402 17.26026 17951 ft 439 kts 23°
2026-05-05 18:03 58.77024 17.29019 17381 ft 435 kts 23°
2026-05-05 18:04 58.79618 17.31985 16830 ft 431 kts 23°
2026-05-05 18:04 58.82181 17.34923 16288 ft 426 kts 23°
2026-05-05 18:04 58.84715 17.37832 15733 ft 421 kts 23°
2026-05-05 18:04 58.87221 17.40725 15181 ft 417 kts 23°
2026-05-05 18:05 58.89693 17.43595 14623 ft 412 kts 23°
2026-05-05 18:05 58.92139 17.46441 14059 ft 408 kts 24°
2026-05-05 18:05 58.94559 17.49256 13479 ft 403 kts 24°
2026-05-05 18:05 58.96950 17.52020 12865 ft 397 kts 24°
2026-05-05 18:06 58.99316 17.54711 12349 ft 390 kts 24°
2026-05-05 18:06 59.00862 17.56433 12038 ft 383 kts 24°
2026-05-05 18:06 59.03878 17.59739 10942 ft 369 kts 24°
2026-05-05 18:06 59.06113 17.62103 9973 ft 361 kts 24°
2026-05-05 18:07 59.08281 17.64316 9536 ft 339 kts 24°
2026-05-05 18:07 59.10286 17.66360 9390 ft 312 kts 24°
2026-05-05 18:07 59.12173 17.68207 8949 ft 298 kts 19°
2026-05-05 18:07 59.14066 17.69748 8325 ft 292 kts 18°
2026-05-05 18:08 59.15943 17.71212 7698 ft 288 kts 18°
2026-05-05 18:08 59.17794 17.72634 7082 ft 284 kts 18°
2026-05-05 18:08 59.19632 17.74026 6577 ft 283 kts 18°
2026-05-05 18:08 59.21454 17.75386 6273 ft 279 kts 18°
2026-05-05 18:09 59.23262 17.76733 5923 ft 277 kts 18°
2026-05-05 18:09 59.25060 17.78066 5578 ft 275 kts 18°
2026-05-05 18:09 59.26834 17.79381 5358 ft 268 kts 18°
2026-05-05 18:09 59.28548 17.80659 5222 ft 259 kts 18°
2026-05-05 18:10 59.30205 17.81900 5095 ft 250 kts 18°
2026-05-05 18:10 59.31795 17.83100 4997 ft 240 kts 18°
2026-05-05 18:10 59.33297 17.84280 5002 ft 224 kts 15°
2026-05-05 18:10 59.34727 17.85026 5003 ft 212 kts
2026-05-05 18:11 59.36167 17.85569 4904 ft 208 kts
2026-05-05 18:11 59.37560 17.86065 4771 ft 200 kts
2026-05-05 18:11 59.38903 17.86543 4639 ft 193 kts
2026-05-05 18:11 59.40220 17.87012 4503 ft 192 kts
2026-05-05 18:12 59.41523 17.87477 4444 ft 188 kts
2026-05-05 18:12 59.42805 17.87936 4204 ft 185 kts
2026-05-05 18:12 59.44066 17.88387 3949 ft 184 kts
2026-05-05 18:12 59.45321 17.88836 3698 ft 183 kts
2026-05-05 18:13 59.46572 17.89284 3446 ft 182 kts
2026-05-05 18:13 59.47816 17.89730 3206 ft 182 kts
2026-05-05 18:13 59.49056 17.90175 2944 ft 181 kts
2026-05-05 18:13 59.50295 17.90620 2696 ft 180 kts
2026-05-05 18:14 59.51528 17.91063 2451 ft 180 kts
2026-05-05 18:14 59.52748 17.91503 2195 ft 177 kts
2026-05-05 18:14 59.53946 17.91939 1958 ft 173 kts
2026-05-05 18:14 59.55121 17.92362 1710 ft 170 kts
2026-05-05 18:15 59.56248 17.92768 1474 ft 160 kts
2026-05-05 18:15 59.57271 17.93135 1267 ft 142 kts
2026-05-05 18:15 59.58213 17.93476 1073 ft 135 kts
2026-05-05 18:15 59.59124 17.93805 884 ft 131 kts
2026-05-05 18:16 59.60025 17.94127 693 ft 133 kts
2026-05-05 18:16 59.60929 17.94452 529 ft 132 kts 11°
2026-05-05 18:16 59.61832 17.94783 353 ft 132 kts 12°
2026-05-05 18:16 59.62729 17.95108 178 ft 131 kts 13°
2026-05-05 18:17 59.63552 17.95412 116 ft 102 kts 10°
2026-05-05 18:17 59.64037 17.95569 113 ft 31 kts 359°
2026-05-05 18:17 59.64236 17.95455 108 ft 24 kts 341°
2026-05-05 18:17 59.64389 17.95347 105 ft 20 kts 341°
2026-05-05 18:18 59.64504 17.95344 105 ft 17 kts 11°
2026-05-05 18:18 59.64635 17.95393 104 ft 21 kts 10°
2026-05-05 18:18 59.64785 17.95448 107 ft 23 kts 10°
2026-05-05 18:18 59.64948 17.95507 111 ft 24 kts 10°
2026-05-05 18:19 59.65108 17.95482 115 ft 23 kts 345°
2026-05-05 18:19 59.65264 17.95400 122 ft 23 kts 345°
2026-05-05 18:19 59.65415 17.95320 126 ft 24 kts 345°
2026-05-05 18:19 59.65583 17.95231 128 ft 26 kts 345°
2026-05-05 18:20 59.65732 17.95133 126 ft 19 kts 317°
2026-05-05 18:20 59.65728 17.94852 121 ft 24 kts 256°
2026-05-05 18:20 59.65686 17.94517 123 ft 26 kts 256°
2026-05-05 18:20 59.65640 17.94152 121 ft 28 kts 256°
2026-05-05 18:21 59.65598 17.93823 113 ft 23 kts 256°
2026-05-05 18:21 59.65559 17.93509 111 ft 22 kts 256°
2026-05-05 18:21 59.65527 17.93264 111 ft 14 kts 255°
2026-05-05 18:21 59.65460 17.93216 111 ft 11 kts 146°
2026-05-05 18:22 59.65390 17.93265 111 ft 11 kts 166°
2026-05-05 18:22 59.65321 17.93299 112 ft 6 kts 165°
2026-05-05 18:22 59.65299 17.93263 110 ft 5 kts 251°
2026-05-05 18:22 59.65288 17.93199 112 ft 4 kts 251°
2026-05-05 18:23 59.65283 17.93172 110 ft 1 kts 251°
2026-05-05 18:23 59.65283 17.93171 110 ft 0 kts 251°